Regional Weather Roundup
Issued by NWS Cleveland, OH

Home | Current Version | Previous Version | Text Only | Print | Product List | Glossary On
Versions: 1 2 3 4 5 6 7 8 9 10 11 12 13 14 15 16 17 18 19 20 21 22 23 24 25 26 27 28 29 30 31 32 33 34 35 36 37 38 39 40 41 42 43 44 45 46 47 48 49 50
000
ASUS41 KCLE 041010
RWRCLE
OHIO REGIONAL WEATHER ROUNDUP
NATIONAL WEATHER SERVICE WILMINGTON, OH
600 AM EDT MON MAY 04 2015

NOTE: "FAIR" INDICATES FEW OR NO CLOUDS BELOW 12,000 FEET WITH NO
SIGNIFICANT WEATHER AND/OR OBSTRUCTIONS TO VISIBILITY.

OHZ001>008-015>018-024>027-034-035-043-044-041100-
   NORTHWEST OHIO

CITY           SKY/WX    TMP DP  RH WIND       PRES   REMARKS
DEFIANCE       CLOUDY    62  48  60 S8        30.03F
FINDLAY        MOCLDY    62  47  57 S12       30.06S
TOLEDO EXPRESS CLOUDY    62  47  57 S7        30.03F
TOLEDO EXEC    MOCLDY    63  46  54 S9        30.05S
LIMA           MOCLDY    61  47  59 S10       30.07S
$$

OHZ009>014-019>023-028>033-038-089-041100-
   NORTHEAST OHIO

CITY           SKY/WX    TMP DP  RH WIND       PRES   REMARKS
CLE-HOPKINS    MOCLDY    63  43  48 S9        30.11S
CLE-LAKEFRONT  PTCLDY    63  43  48 S12       30.07S
CUY CO. ARPT   NOT AVBL
LORAIN-ELYRIA  MOCLDY    57  45  64 S7        30.09S
ASHTABULA      CLEAR     57  41  55 S9        30.11R
AKRON-CANTON   PTCLDY    55  42  61 S6        30.13S
WOOSTER        PTCLDY    52  43  71 CALM      30.13R
MANSFIELD      CLEAR     54  44  69 S6        30.12R
YOUNGSTOWN     PTCLDY    58  40  51 S7        30.13R
$$

OHZ042-051>053-060>062-070>072-077>081-041100-
  SOUTHWEST OHIO

CITY           SKY/WX    TMP DP  RH WIND       PRES   REMARKS
CINC-COVINGTON PTCLDY    58  48  69 S7        30.12S
CINC-LUNKEN    CLEAR     50  50 100 SW3       30.14R
HAMILTON       MOCLDY    56  49  77 E3        30.13R
DAYTON         PTCLDY    62  48  60 S9        30.11S
WRIGHT-PAT AFB PTCLDY    56  47  71 SE3       30.11R
DAYTON GENERAL PTCLDY    56  48  74 S8        30.11R
WILMINGTON     CLEAR     55  45  68 S7        30.13R
$$

OHZ036-037-039>041-045>050-054>059-063>069-073>076-082>088-041100-
  CENTRAL AND SOUTHEAST OHIO

CITY           SKY/WX    TMP DP  RH WIND       PRES   REMARKS
COLUMBUS       CLEAR     53  47  79 CALM      30.12R
OSU AIRPORT    CLEAR     56  44  64 S6        30.12R
BOLTON FIELD   CLEAR     53  45  75 CALM      30.13R
RICKENBACK AFB CLEAR     52  44  74 S3        30.13R
NEWARK         CLEAR     47  44  90 CALM      30.13R
MARION         PTCLDY    55  44  66 S8        30.11R
LANCASTER      CLEAR     50  45  83 CALM      30.14R
ZANESVILLE     CLEAR     47  42  83 S3        30.14S
NEW PHILLY     CLEAR     50  44  80 SE5       30.15R
$$


USA.gov is the U.S. government's official web portal to all federal, state and local government web resources and services.